User: anonymous   Login
Location: Dackenheim
(49.5215°N, 8.1854°E)
Time: 22:35:05
(UTC+00:00)
Language:

RS-44 - Orbit

View from above orbital plane
View from above orbital plane
View from above satellite
View from above satellite

Ground track
Ground track

The orbit is defined by the following mean orbital elements,

1 44909U          26073.40705991 +.00000000 +00000-0 +53931-4 0 00007
2 44909  82.5211  42.6787 0217725   6.3050 354.0711 12.79747576    05
Epoch (UTC): 14 March 2026 09:46:09
Eccentricity: 0.0217725
inclination: 82.5211°
perigee height: 1174 km
apogee height: 1511 km
right ascension of ascending node: 42.6787°
argument of perigee: 6.3050°
revolutions per day: 12.79747576
mean anomaly at epoch: 354.0711°

The dashed part of the orbit path shows where the satellite is in the earth's shadow,  

DLR